owner,sensor,date,latitude,longitude,air_pressure(mBar),qcFlag 
TABS,ioos:station:wmo:42045:1,2017-04-08T00:00:00Z,26.2168,-96.4998,1019.9,11111222 
TABS,ioos:station:wmo:42045:1,2017-04-08T00:30:00Z,26.2168,-96.4998,1020.1,11111222 
TABS,ioos:station:wmo:42045:1,2017-04-08T01:00:00Z,26.2168,-96.4998,1020.08,11111222 
TABS,ioos:station:wmo:42045:1,2017-04-08T01:30:00Z,26.2168,-96.4998,1019.94,11111222 
TABS,ioos:station:wmo:42045:1,2017-04-08T02:00:00Z,26.2168,-96.4998,1020.11,11111222 
TABS,ioos:station:wmo:42045:1,2017-04-08T02:30:00Z,26.2168,-96.4998,1020.35,11111222 
TABS,ioos:station:wmo:42045:1,2017-04-08T03:00:00Z,26.2168,-96.4998,1020.48,11111222 
TABS,ioos:station:wmo:42045:1,2017-04-08T03:30:00Z,26.2168,-96.4998,1020.64,11111222 
TABS,ioos:station:wmo:42045:1,2017-04-08T04:00:00Z,26.2168,-96.4998,1020.47,11111222 
TABS,ioos:station:wmo:42045:1,2017-04-08T04:30:00Z,26.2168,-96.4998,1020.47,11111222 
TABS,ioos:station:wmo:42045:1,2017-04-08T05:00:00Z,26.2168,-96.4998,1020.21,11111222 
TABS,ioos:station:wmo:42045:1,2017-04-08T05:30:00Z,26.2168,-96.4998,1019.98,11111222 
TABS,ioos:station:wmo:42045:1,2017-04-08T06:00:00Z,26.2168,-96.4998,1019.78,11111222 
TABS,ioos:station:wmo:42045:1,2017-04-08T06:30:00Z,26.2168,-96.4998,1019.39,11111222 
TABS,ioos:station:wmo:42045:1,2017-04-08T07:00:00Z,26.2168,-96.4998,1018.91,11111222 
TABS,ioos:station:wmo:42045:1,2017-04-08T07:30:00Z,26.2168,-96.4998,1018.39,11111222 
TABS,ioos:station:wmo:42045:1,2017-04-08T08:00:00Z,26.2168,-96.4998,1018.06,11111222 
TABS,ioos:station:wmo:42045:1,2017-04-08T08:30:00Z,26.2168,-96.4998,1017.75,11111222 
TABS,ioos:station:wmo:42045:1,2017-04-08T09:00:00Z,26.2168,-96.4998,1017.56,11111222 
TABS,ioos:station:wmo:42045:1,2017-04-08T09:30:00Z,26.2168,-96.4998,1017.27,11111222 
TABS,ioos:station:wmo:42045:1,2017-04-08T10:00:00Z,26.2168,-96.4998,1017.19,11111222 
TABS,ioos:station:wmo:42045:1,2017-04-08T10:30:00Z,26.2168,-96.4998,1017.2,11111222 
TABS,ioos:station:wmo:42045:1,2017-04-08T11:00:00Z,26.2168,-96.4998,1017.27,11111222 
TABS,ioos:station:wmo:42045:1,2017-04-08T11:30:00Z,26.2168,-96.4998,1017.25,11111222 
TABS,ioos:station:wmo:42045:1,2017-04-08T12:00:00Z,26.2168,-96.4998,1017.62,11111222 
TABS,ioos:station:wmo:42045:1,2017-04-08T12:30:00Z,26.2168,-96.4998,1017.78,11111222 
TABS,ioos:station:wmo:42045:1,2017-04-08T13:00:00Z,26.2168,-96.4998,1018.01,11111222 
TABS,ioos:station:wmo:42045:1,2017-04-08T13:30:00Z,26.2168,-96.4998,1018.26,11111222 
TABS,ioos:station:wmo:42045:1,2017-04-08T14:00:00Z,26.2168,-96.4998,1018.52,11111222 
TABS,ioos:station:wmo:42045:1,2017-04-08T14:30:00Z,26.2168,-96.4998,1018.74,11111222 
TABS,ioos:station:wmo:42045:1,2017-04-08T15:00:00Z,26.2168,-96.4998,1018.92,11111222 
TABS,ioos:station:wmo:42045:1,2017-04-08T15:30:00Z,26.2168,-96.4998,1018.86,11111222 
TABS,ioos:station:wmo:42045:1,2017-04-08T16:00:00Z,26.2168,-96.4998,1018.78,11111222 
TABS,ioos:station:wmo:42045:1,2017-04-08T16:30:00Z,26.2168,-96.4998,1018.66,11111222 
TABS,ioos:station:wmo:42045:1,2017-04-08T17:00:00Z,26.2168,-96.4998,1018.62,11111222 
TABS,ioos:station:wmo:42045:1,2017-04-08T17:30:00Z,26.2168,-96.4998,1018.38,11111222 
TABS,ioos:station:wmo:42045:1,2017-04-08T18:00:00Z,26.2168,-96.4998,1018.0,11111222 
TABS,ioos:station:wmo:42045:1,2017-04-08T18:30:00Z,26.2168,-96.4998,1017.69,11111222 
TABS,ioos:station:wmo:42045:1,2017-04-08T19:00:00Z,26.2168,-96.4998,1017.51,11111222 
TABS,ioos:station:wmo:42045:1,2017-04-08T19:30:00Z,26.2168,-96.4998,1017.01,11111222 
TABS,ioos:station:wmo:42045:1,2017-04-08T20:00:00Z,26.2168,-96.4998,1016.48,11111222 
TABS,ioos:station:wmo:42045:1,2017-04-08T20:30:00Z,26.2168,-96.4998,1015.97,11111222 
TABS,ioos:station:wmo:42045:1,2017-04-08T21:00:00Z,26.2168,-96.4998,1015.37,11111222 
TABS,ioos:station:wmo:42045:1,2017-04-08T21:30:00Z,26.2168,-96.4998,1014.86,11111222 
TABS,ioos:station:wmo:42045:1,2017-04-08T22:00:00Z,26.2168,-96.4998,1014.51,11111222 
TABS,ioos:station:wmo:42045:1,2017-04-08T22:30:00Z,26.2168,-96.4998,1014.19,11111222 
TABS,ioos:station:wmo:42045:1,2017-04-08T23:00:00Z,26.2168,-96.4998,1014.17,11111222 
TABS,ioos:station:wmo:42045:1,2017-04-08T23:30:00Z,26.2168,-96.4998,1014.14,11111222 
TABS,ioos:station:wmo:42045:1,2017-04-09T00:00:00Z,26.2168,-96.4998,1013.92,11111222 
TABS,ioos:station:wmo:42045:1,2017-04-09T00:30:00Z,26.2168,-96.4998,1013.96,11111222 
TABS,ioos:station:wmo:42045:1,2017-04-09T01:00:00Z,26.2168,-96.4998,1014.27,11111222 
TABS,ioos:station:wmo:42045:1,2017-04-09T01:30:00Z,26.2168,-96.4998,1014.66,11111222 
TABS,ioos:station:wmo:42045:1,2017-04-09T02:00:00Z,26.2168,-96.4998,1015.03,11111222 
TABS,ioos:station:wmo:42045:1,2017-04-09T02:30:00Z,26.2168,-96.4998,1015.41,11111222 
TABS,ioos:station:wmo:42045:1,2017-04-09T03:00:00Z,26.2168,-96.4998,1015.45,11111222 
TABS,ioos:station:wmo:42045:1,2017-04-09T03:30:00Z,26.2168,-96.4998,1015.38,11111222 
TABS,ioos:station:wmo:42045:1,2017-04-09T04:00:00Z,26.2168,-96.4998,1015.34,11111222 
TABS,ioos:station:wmo:42045:1,2017-04-09T04:30:00Z,26.2168,-96.4998,1015.23,11111222 
TABS,ioos:station:wmo:42045:1,2017-04-09T05:00:00Z,26.2168,-96.4998,1015.08,11111222 
TABS,ioos:station:wmo:42045:1,2017-04-09T05:30:00Z,26.2168,-96.4998,1014.8,11111222 
TABS,ioos:station:wmo:42045:1,2017-04-09T06:00:00Z,26.2168,-96.4998,1014.25,11111222 
TABS,ioos:station:wmo:42045:1,2017-04-09T06:30:00Z,26.2168,-96.4998,1014.18,11111222 
TABS,ioos:station:wmo:42045:1,2017-04-09T07:00:00Z,26.2168,-96.4998,1014.05,11111222 
TABS,ioos:station:wmo:42045:1,2017-04-09T07:30:00Z,26.2168,-96.4998,1014.0,11111222 
TABS,ioos:station:wmo:42045:1,2017-04-09T08:00:00Z,26.2168,-96.4998,1013.44,11111222 
TABS,ioos:station:wmo:42045:1,2017-04-09T08:30:00Z,26.2168,-96.4998,1013.06,11111222 
TABS,ioos:station:wmo:42045:1,2017-04-09T09:00:00Z,26.2168,-96.4998,1012.68,11111222 
TABS,ioos:station:wmo:42045:1,2017-04-09T09:30:00Z,26.2168,-96.4998,1012.53,11111222 
TABS,ioos:station:wmo:42045:1,2017-04-09T10:00:00Z,26.2168,-96.4998,1012.35,11111222 
TABS,ioos:station:wmo:42045:1,2017-04-09T10:30:00Z,26.2168,-96.4998,1012.4,11111222 
TABS,ioos:station:wmo:42045:1,2017-04-09T11:00:00Z,26.2168,-96.4998,1012.41,11111222 
TABS,ioos:station:wmo:42045:1,2017-04-09T11:30:00Z,26.2168,-96.4998,1012.77,11111222 
TABS,ioos:station:wmo:42045:1,2017-04-09T12:00:00Z,26.2168,-96.4998,1012.83,11111222 
TABS,ioos:station:wmo:42045:1,2017-04-09T12:30:00Z,26.2168,-96.4998,1013.18,11111222 
TABS,ioos:station:wmo:42045:1,2017-04-09T13:00:00Z,26.2168,-96.4998,1013.71,11111222 
TABS,ioos:station:wmo:42045:1,2017-04-09T13:30:00Z,26.2168,-96.4998,1014.27,11111222 
TABS,ioos:station:wmo:42045:1,2017-04-09T14:00:00Z,26.2168,-96.4998,1014.39,11111222 
TABS,ioos:station:wmo:42045:1,2017-04-09T14:30:00Z,26.2168,-96.4998,1014.58,11111222 
TABS,ioos:station:wmo:42045:1,2017-04-09T15:00:00Z,26.2168,-96.4998,1014.47,11111222 
TABS,ioos:station:wmo:42045:1,2017-04-09T15:30:00Z,26.2168,-96.4998,1014.66,11111222 
TABS,ioos:station:wmo:42045:1,2017-04-09T16:00:00Z,26.2168,-96.4998,1014.55,11111222 
TABS,ioos:station:wmo:42045:1,2017-04-09T16:30:00Z,26.2168,-96.4998,1014.45,11111222 
TABS,ioos:station:wmo:42045:1,2017-04-09T17:00:00Z,26.2168,-96.4998,1014.42,11111222 
TABS,ioos:station:wmo:42045:1,2017-04-09T17:30:00Z,26.2168,-96.4998,1014.19,11111222 
TABS,ioos:station:wmo:42045:1,2017-04-09T18:00:00Z,26.2168,-96.4998,1013.72,11111222 
TABS,ioos:station:wmo:42045:1,2017-04-09T18:30:00Z,26.2168,-96.4998,1013.29,11111222 
TABS,ioos:station:wmo:42045:1,2017-04-09T19:00:00Z,26.2168,-96.4998,1013.37,11111222 
TABS,ioos:station:wmo:42045:1,2017-04-09T19:30:00Z,26.2168,-96.4998,1012.96,11111222 
TABS,ioos:station:wmo:42045:1,2017-04-09T20:00:00Z,26.2168,-96.4998,1012.65,11111222 
TABS,ioos:station:wmo:42045:1,2017-04-09T20:30:00Z,26.2168,-96.4998,1012.17,11111222 
TABS,ioos:station:wmo:42045:1,2017-04-09T21:00:00Z,26.2168,-96.4998,1011.8,11111222 
TABS,ioos:station:wmo:42045:1,2017-04-09T21:30:00Z,26.2168,-96.4998,1011.52,11111222 
TABS,ioos:station:wmo:42045:1,2017-04-09T22:00:00Z,26.2168,-96.4998,1011.08,11111222 
TABS,ioos:station:wmo:42045:1,2017-04-09T22:30:00Z,26.2168,-96.4998,1011.11,11111222 
TABS,ioos:station:wmo:42045:1,2017-04-09T23:00:00Z,26.2168,-96.4998,1011.11,11111222 
TABS,ioos:station:wmo:42045:1,2017-04-09T23:30:00Z,26.2168,-96.4998,1011.38,11111222 
TABS,ioos:station:wmo:42045:1,2017-04-10T00:00:00Z,26.2168,-96.4998,1011.59,11111222 
TABS,ioos:station:wmo:42045:1,2017-04-10T00:30:00Z,26.2168,-96.4998,1011.65,11111222 
TABS,ioos:station:wmo:42045:1,2017-04-10T01:00:00Z,26.2168,-96.4998,1011.86,11111222 
TABS,ioos:station:wmo:42045:1,2017-04-10T01:30:00Z,26.2168,-96.4998,1012.09,11111222 
TABS,ioos:station:wmo:42045:1,2017-04-10T02:00:00Z,26.2168,-96.4998,1012.79,11111222 
TABS,ioos:station:wmo:42045:1,2017-04-10T02:30:00Z,26.2168,-96.4998,1013.05,11111222 
TABS,ioos:station:wmo:42045:1,2017-04-10T03:00:00Z,26.2168,-96.4998,1013.33,11111222 
TABS,ioos:station:wmo:42045:1,2017-04-10T03:30:00Z,26.2168,-96.4998,1013.6,11111222 
TABS,ioos:station:wmo:42045:1,2017-04-10T04:00:00Z,26.2168,-96.4998,1013.72,11111222 
TABS,ioos:station:wmo:42045:1,2017-04-10T04:30:00Z,26.2168,-96.4998,1013.74,11111222 
TABS,ioos:station:wmo:42045:1,2017-04-10T05:00:00Z,26.2168,-96.4998,1013.37,11111222 
TABS,ioos:station:wmo:42045:1,2017-04-10T05:30:00Z,26.2168,-96.4998,1013.18,11111222 
TABS,ioos:station:wmo:42045:1,2017-04-10T06:00:00Z,26.2168,-96.4998,1012.89,11111222 
TABS,ioos:station:wmo:42045:1,2017-04-10T06:30:00Z,26.2168,-96.4998,1012.93,11111222 
TABS,ioos:station:wmo:42045:1,2017-04-10T07:00:00Z,26.2168,-96.4998,1012.74,11111222 
TABS,ioos:station:wmo:42045:1,2017-04-10T07:30:00Z,26.2168,-96.4998,1012.75,11111222 
TABS,ioos:station:wmo:42045:1,2017-04-10T08:00:00Z,26.2168,-96.4998,1012.48,11111222 
TABS,ioos:station:wmo:42045:1,2017-04-10T08:30:00Z,26.2168,-96.4998,1012.33,11111222 
TABS,ioos:station:wmo:42045:1,2017-04-10T09:00:00Z,26.2168,-96.4998,1011.96,11111222 
TABS,ioos:station:wmo:42045:1,2017-04-10T09:30:00Z,26.2168,-96.4998,1011.96,11111222 
TABS,ioos:station:wmo:42045:1,2017-04-10T10:00:00Z,26.2168,-96.4998,1012.25,11111222 
TABS,ioos:station:wmo:42045:1,2017-04-10T10:30:00Z,26.2168,-96.4998,1012.25,11111222 
TABS,ioos:station:wmo:42045:1,2017-04-10T11:00:00Z,26.2168,-96.4998,1012.56,11111222 
TABS,ioos:station:wmo:42045:1,2017-04-10T11:30:00Z,26.2168,-96.4998,1012.9,11111222 
TABS,ioos:station:wmo:42045:1,2017-04-10T12:00:00Z,26.2168,-96.4998,1013.23,11111222 
TABS,ioos:station:wmo:42045:1,2017-04-10T12:30:00Z,26.2168,-96.4998,1013.4,11111222 
TABS,ioos:station:wmo:42045:1,2017-04-10T13:00:00Z,26.2168,-96.4998,1013.84,11111222 
TABS,ioos:station:wmo:42045:1,2017-04-10T13:30:00Z,26.2168,-96.4998,1013.99,11111222 
TABS,ioos:station:wmo:42045:1,2017-04-10T14:00:00Z,26.2168,-96.4998,1013.96,11111222 
TABS,ioos:station:wmo:42045:1,2017-04-10T14:30:00Z,26.2168,-96.4998,1014.31,11111222 
TABS,ioos:station:wmo:42045:1,2017-04-10T15:00:00Z,26.2168,-96.4998,1014.38,11111222 
TABS,ioos:station:wmo:42045:1,2017-04-10T15:30:00Z,26.2168,-96.4998,1014.59,11111222 
TABS,ioos:station:wmo:42045:1,2017-04-10T16:00:00Z,26.2168,-96.4998,1014.86,11111222 
TABS,ioos:station:wmo:42045:1,2017-04-10T16:30:00Z,26.2168,-96.4998,1014.79,11111222 
TABS,ioos:station:wmo:42045:1,2017-04-10T17:00:00Z,26.2168,-96.4998,1014.89,11111222 
TABS,ioos:station:wmo:42045:1,2017-04-10T17:30:00Z,26.2168,-96.4998,1014.51,11111222 
TABS,ioos:station:wmo:42045:1,2017-04-10T18:00:00Z,26.2168,-96.4998,1014.27,11111222 
TABS,ioos:station:wmo:42045:1,2017-04-10T18:30:00Z,26.2168,-96.4998,1014.25,11111222 
TABS,ioos:station:wmo:42045:1,2017-04-10T19:00:00Z,26.2168,-96.4998,1014.28,11111222 
TABS,ioos:station:wmo:42045:1,2017-04-10T19:30:00Z,26.2168,-96.4998,1014.21,11111222 
TABS,ioos:station:wmo:42045:1,2017-04-10T20:00:00Z,26.2168,-96.4998,1013.92,11111222 
TABS,ioos:station:wmo:42045:1,2017-04-10T20:30:00Z,26.2168,-96.4998,1013.44,11111222 
TABS,ioos:station:wmo:42045:1,2017-04-10T21:00:00Z,26.2168,-96.4998,1013.36,11111222 
TABS,ioos:station:wmo:42045:1,2017-04-10T21:30:00Z,26.2168,-96.4998,1013.33,11111222 
TABS,ioos:station:wmo:42045:1,2017-04-10T22:00:00Z,26.2168,-96.4998,1013.27,11111222 
TABS,ioos:station:wmo:42045:1,2017-04-10T22:30:00Z,26.2168,-96.4998,1013.23,11111222 
TABS,ioos:station:wmo:42045:1,2017-04-10T23:00:00Z,26.2168,-96.4998,1013.41,11111222 
TABS,ioos:station:wmo:42045:1,2017-04-10T23:30:00Z,26.2168,-96.4998,1013.54,11111222 
TABS,ioos:station:wmo:42045:1,2017-04-11T00:00:00Z,26.2168,-96.4998,1013.92,11111222 
TABS,ioos:station:wmo:42045:1,2017-04-11T00:30:00Z,26.2168,-96.4998,1013.97,11111222 
TABS,ioos:station:wmo:42045:1,2017-04-11T01:00:00Z,26.2168,-96.4998,1013.84,11111222 
TABS,ioos:station:wmo:42045:1,2017-04-11T01:30:00Z,26.2168,-96.4998,1014.22,11111222 
TABS,ioos:station:wmo:42045:1,2017-04-11T02:00:00Z,26.2168,-96.4998,1014.74,11111222 
TABS,ioos:station:wmo:42045:1,2017-04-11T02:30:00Z,26.2168,-96.4998,1015.47,11111222 
TABS,ioos:station:wmo:42045:1,2017-04-11T03:00:00Z,26.2168,-96.4998,1015.82,11111222 
TABS,ioos:station:wmo:42045:1,2017-04-11T03:30:00Z,26.2168,-96.4998,1015.85,11111222 
TABS,ioos:station:wmo:42045:1,2017-04-11T04:00:00Z,26.2168,-96.4998,1016.06,11111222 
TABS,ioos:station:wmo:42045:1,2017-04-11T04:30:00Z,26.2168,-96.4998,1015.99,11111222 
TABS,ioos:station:wmo:42045:1,2017-04-11T05:00:00Z,26.2168,-96.4998,1015.89,11111222 
TABS,ioos:station:wmo:42045:1,2017-04-11T05:30:00Z,26.2168,-96.4998,1015.92,11111222 
TABS,ioos:station:wmo:42045:1,2017-04-11T06:00:00Z,26.2168,-96.4998,1015.76,11111222 
TABS,ioos:station:wmo:42045:1,2017-04-11T06:30:00Z,26.2168,-96.4998,1015.84,11111222 
TABS,ioos:station:wmo:42045:1,2017-04-11T07:00:00Z,26.2168,-96.4998,1015.76,11111222 
TABS,ioos:station:wmo:42045:1,2017-04-11T07:30:00Z,26.2168,-96.4998,1015.91,11111222 
TABS,ioos:station:wmo:42045:1,2017-04-11T08:00:00Z,26.2168,-96.4998,1015.26,11111222 
TABS,ioos:station:wmo:42045:1,2017-04-11T08:30:00Z,26.2168,-96.4998,1014.92,11111222 
TABS,ioos:station:wmo:42045:1,2017-04-11T09:00:00Z,26.2168,-96.4998,1015.23,11111222 
TABS,ioos:station:wmo:42045:1,2017-04-11T09:30:00Z,26.2168,-96.4998,1015.62,11111222 
TABS,ioos:station:wmo:42045:1,2017-04-11T10:00:00Z,26.2168,-96.4998,1016.07,11111222 
TABS,ioos:station:wmo:42045:1,2017-04-11T10:30:00Z,26.2168,-96.4998,1016.1,11111222 
TABS,ioos:station:wmo:42045:1,2017-04-11T11:00:00Z,26.2168,-96.4998,1015.86,11111222 
TABS,ioos:station:wmo:42045:1,2017-04-11T11:30:00Z,26.2168,-96.4998,1016.02,11111222 
TABS,ioos:station:wmo:42045:1,2017-04-11T12:00:00Z,26.2168,-96.4998,1016.14,11111222 
TABS,ioos:station:wmo:42045:1,2017-04-11T12:30:00Z,26.2168,-96.4998,1016.31,11111222 
TABS,ioos:station:wmo:42045:1,2017-04-11T13:00:00Z,26.2168,-96.4998,1015.48,11111222 
TABS,ioos:station:wmo:42045:1,2017-04-11T13:30:00Z,26.2168,-96.4998,1015.52,11111222 
TABS,ioos:station:wmo:42045:1,2017-04-11T14:00:00Z,26.2168,-96.4998,1015.67,11111222 
TABS,ioos:station:wmo:42045:1,2017-04-11T14:30:00Z,26.2168,-96.4998,1016.34,11111222 
TABS,ioos:station:wmo:42045:1,2017-04-11T15:00:00Z,26.2168,-96.4998,1016.44,11111222 
TABS,ioos:station:wmo:42045:1,2017-04-11T15:30:00Z,26.2168,-96.4998,1017.72,11111222 
TABS,ioos:station:wmo:42045:1,2017-04-11T16:00:00Z,26.2168,-96.4998,1017.77,11111222 
TABS,ioos:station:wmo:42045:1,2017-04-11T16:30:00Z,26.2168,-96.4998,1018.36,11111222 
TABS,ioos:station:wmo:42045:1,2017-04-11T17:00:00Z,26.2168,-96.4998,1018.57,11111222 
TABS,ioos:station:wmo:42045:1,2017-04-11T17:30:00Z,26.2168,-96.4998,1018.95,11111222 
TABS,ioos:station:wmo:42045:1,2017-04-11T18:00:00Z,26.2168,-96.4998,1019.0,11111222 
TABS,ioos:station:wmo:42045:1,2017-04-11T18:30:00Z,26.2168,-96.4998,1018.58,11111222 
TABS,ioos:station:wmo:42045:1,2017-04-11T19:00:00Z,26.2168,-96.4998,1017.57,11111222 
TABS,ioos:station:wmo:42045:1,2017-04-11T19:30:00Z,26.2168,-96.4998,1017.35,11111222 
TABS,ioos:station:wmo:42045:1,2017-04-11T20:00:00Z,26.2168,-96.4998,1017.09,11111222 
TABS,ioos:station:wmo:42045:1,2017-04-11T20:30:00Z,26.2168,-96.4998,1017.01,11111222 
TABS,ioos:station:wmo:42045:1,2017-04-11T21:00:00Z,26.2168,-96.4998,1017.16,11111222 
TABS,ioos:station:wmo:42045:1,2017-04-11T21:30:00Z,26.2168,-96.4998,1016.27,11111222 
TABS,ioos:station:wmo:42045:1,2017-04-11T22:00:00Z,26.2168,-96.4998,1016.22,11111222 
TABS,ioos:station:wmo:42045:1,2017-04-11T22:30:00Z,26.2168,-96.4998,1016.51,11111222 
TABS,ioos:station:wmo:42045:1,2017-04-11T23:00:00Z,26.2168,-96.4998,1016.48,11111222 
TABS,ioos:station:wmo:42045:1,2017-04-11T23:30:00Z,26.2168,-96.4998,1017.06,11111222 
TABS,ioos:station:wmo:42045:1,2017-04-12T00:00:00Z,26.2168,-96.4998,1017.15,11111222 
TABS,ioos:station:wmo:42045:1,2017-04-12T00:30:00Z,26.2168,-96.4998,1017.49,11111222 
TABS,ioos:station:wmo:42045:1,2017-04-12T01:00:00Z,26.2168,-96.4998,1017.8,11111222 
TABS,ioos:station:wmo:42045:1,2017-04-12T01:30:00Z,26.2168,-96.4998,1018.8,11111222 
TABS,ioos:station:wmo:42045:1,2017-04-12T02:00:00Z,26.2168,-96.4998,1019.3,11111222 
TABS,ioos:station:wmo:42045:1,2017-04-12T02:30:00Z,26.2168,-96.4998,1020.23,11111222 
TABS,ioos:station:wmo:42045:1,2017-04-12T03:00:00Z,26.2168,-96.4998,1020.91,11111222 
TABS,ioos:station:wmo:42045:1,2017-04-12T03:30:00Z,26.2168,-96.4998,1020.3,11111222 
TABS,ioos:station:wmo:42045:1,2017-04-12T04:00:00Z,26.2168,-96.4998,1021.15,11111222 
TABS,ioos:station:wmo:42045:1,2017-04-12T04:30:00Z,26.2168,-96.4998,1019.89,11111222 
TABS,ioos:station:wmo:42045:1,2017-04-12T05:00:00Z,26.2168,-96.4998,1018.9,11111222 
TABS,ioos:station:wmo:42045:1,2017-04-12T05:30:00Z,26.2168,-96.4998,1018.15,11111222 
TABS,ioos:station:wmo:42045:1,2017-04-12T06:00:00Z,26.2168,-96.4998,1017.93,11111222 
TABS,ioos:station:wmo:42045:1,2017-04-12T06:30:00Z,26.2168,-96.4998,1017.53,11111222 
TABS,ioos:station:wmo:42045:1,2017-04-12T07:00:00Z,26.2168,-96.4998,1016.76,11111222 
TABS,ioos:station:wmo:42045:1,2017-04-12T07:30:00Z,26.2168,-96.4998,1016.22,11111222 
TABS,ioos:station:wmo:42045:1,2017-04-12T08:00:00Z,26.2168,-96.4998,1016.34,11111222 
TABS,ioos:station:wmo:42045:1,2017-04-12T08:30:00Z,26.2168,-96.4998,1016.38,11111222 
TABS,ioos:station:wmo:42045:1,2017-04-12T09:00:00Z,26.2168,-96.4998,1016.62,11111222 
TABS,ioos:station:wmo:42045:1,2017-04-12T09:30:00Z,26.2168,-96.4998,1017.3,11111222 
TABS,ioos:station:wmo:42045:1,2017-04-12T10:00:00Z,26.2168,-96.4998,1017.41,11111222 
TABS,ioos:station:wmo:42045:1,2017-04-12T10:30:00Z,26.2168,-96.4998,1017.63,11111222 
TABS,ioos:station:wmo:42045:1,2017-04-12T11:00:00Z,26.2168,-96.4998,1018.19,11111222 
TABS,ioos:station:wmo:42045:1,2017-04-12T11:30:00Z,26.2168,-96.4998,1017.93,11111222 
TABS,ioos:station:wmo:42045:1,2017-04-12T12:00:00Z,26.2168,-96.4998,1018.16,11111222 
TABS,ioos:station:wmo:42045:1,2017-04-12T12:30:00Z,26.2168,-96.4998,1017.95,11111222 
TABS,ioos:station:wmo:42045:1,2017-04-12T13:00:00Z,26.2168,-96.4998,1018.45,11111222 
TABS,ioos:station:wmo:42045:1,2017-04-12T13:30:00Z,26.2168,-96.4998,1018.48,11111222 
TABS,ioos:station:wmo:42045:1,2017-04-12T14:00:00Z,26.2168,-96.4998,1018.96,11111222 
TABS,ioos:station:wmo:42045:1,2017-04-12T14:30:00Z,26.2168,-96.4998,1019.07,11111222 
TABS,ioos:station:wmo:42045:1,2017-04-12T15:00:00Z,26.2168,-96.4998,1019.27,11111222 
TABS,ioos:station:wmo:42045:1,2017-04-12T15:30:00Z,26.2168,-96.4998,1019.57,11111222 
TABS,ioos:station:wmo:42045:1,2017-04-12T16:00:00Z,26.2168,-96.4998,1019.81,11111222 
TABS,ioos:station:wmo:42045:1,2017-04-12T16:30:00Z,26.2168,-96.4998,1019.82,11111222 
TABS,ioos:station:wmo:42045:1,2017-04-12T17:00:00Z,26.2168,-96.4998,1019.87,11111222 
TABS,ioos:station:wmo:42045:1,2017-04-12T17:30:00Z,26.2168,-96.4998,1019.77,11111222 
TABS,ioos:station:wmo:42045:1,2017-04-12T18:00:00Z,26.2168,-96.4998,1019.38,11111222 
TABS,ioos:station:wmo:42045:1,2017-04-12T18:30:00Z,26.2168,-96.4998,1019.27,11111222 
TABS,ioos:station:wmo:42045:1,2017-04-12T19:00:00Z,26.2168,-96.4998,1018.86,11111222 
TABS,ioos:station:wmo:42045:1,2017-04-12T19:30:00Z,26.2168,-96.4998,1018.58,11111222 
TABS,ioos:station:wmo:42045:1,2017-04-12T20:00:00Z,26.2168,-96.4998,1018.22,11111222 
TABS,ioos:station:wmo:42045:1,2017-04-12T20:30:00Z,26.2168,-96.4998,1018.46,11111222 
TABS,ioos:station:wmo:42045:1,2017-04-12T21:00:00Z,26.2168,-96.4998,1018.25,11111222 
TABS,ioos:station:wmo:42045:1,2017-04-12T21:30:00Z,26.2168,-96.4998,1018.02,11111222 
TABS,ioos:station:wmo:42045:1,2017-04-12T22:00:00Z,26.2168,-96.4998,1017.9,11111222 
TABS,ioos:station:wmo:42045:1,2017-04-12T22:30:00Z,26.2168,-96.4998,1018.07,11111222 
TABS,ioos:station:wmo:42045:1,2017-04-12T23:00:00Z,26.2168,-96.4998,1018.18,11111222 
TABS,ioos:station:wmo:42045:1,2017-04-12T23:30:00Z,26.2168,-96.4998,1018.2,11111222 
TABS,ioos:station:wmo:42045:1,2017-04-13T00:00:00Z,26.2168,-96.4998,1018.1,11111222 
TABS,ioos:station:wmo:42045:1,2017-04-13T00:30:00Z,26.2168,-96.4998,1018.2,11111222 
TABS,ioos:station:wmo:42045:1,2017-04-13T01:00:00Z,26.2168,-96.4998,1018.29,11111222 
TABS,ioos:station:wmo:42045:1,2017-04-13T01:30:00Z,26.2168,-96.4998,1018.56,11111222 
TABS,ioos:station:wmo:42045:1,2017-04-13T02:00:00Z,26.2168,-96.4998,1018.83,11111222 
TABS,ioos:station:wmo:42045:1,2017-04-13T02:30:00Z,26.2168,-96.4998,1018.95,11111222 
TABS,ioos:station:wmo:42045:1,2017-04-13T03:00:00Z,26.2168,-96.4998,1019.13,11111222 
TABS,ioos:station:wmo:42045:1,2017-04-13T03:30:00Z,26.2168,-96.4998,1019.29,11111222 
TABS,ioos:station:wmo:42045:1,2017-04-13T04:00:00Z,26.2168,-96.4998,1019.12,11111222 
TABS,ioos:station:wmo:42045:1,2017-04-13T04:30:00Z,26.2168,-96.4998,1019.18,11111222 
TABS,ioos:station:wmo:42045:1,2017-04-13T05:00:00Z,26.2168,-96.4998,1019.01,11111222 
TABS,ioos:station:wmo:42045:1,2017-04-13T05:30:00Z,26.2168,-96.4998,1018.89,11111222 
TABS,ioos:station:wmo:42045:1,2017-04-13T06:00:00Z,26.2168,-96.4998,1018.83,11111222 
TABS,ioos:station:wmo:42045:1,2017-04-13T06:30:00Z,26.2168,-96.4998,1018.84,11111222 
TABS,ioos:station:wmo:42045:1,2017-04-13T07:00:00Z,26.2168,-96.4998,1018.77,11111222 
TABS,ioos:station:wmo:42045:1,2017-04-13T07:30:00Z,26.2168,-96.4998,1018.64,11111222 
TABS,ioos:station:wmo:42045:1,2017-04-13T08:00:00Z,26.2168,-96.4998,1018.36,11111222 
TABS,ioos:station:wmo:42045:1,2017-04-13T08:30:00Z,26.2168,-96.4998,1017.98,11111222 
TABS,ioos:station:wmo:42045:1,2017-04-13T09:00:00Z,26.2168,-96.4998,1017.92,11111222 
TABS,ioos:station:wmo:42045:1,2017-04-13T09:30:00Z,26.2168,-96.4998,1017.67,11111222 
TABS,ioos:station:wmo:42045:1,2017-04-13T10:00:00Z,26.2168,-96.4998,1017.95,11111222 
TABS,ioos:station:wmo:42045:1,2017-04-13T10:30:00Z,26.2168,-96.4998,1017.96,11111222 
TABS,ioos:station:wmo:42045:1,2017-04-13T11:00:00Z,26.2168,-96.4998,1018.07,11111222 
TABS,ioos:station:wmo:42045:1,2017-04-13T11:30:00Z,26.2168,-96.4998,1017.99,11111222 
TABS,ioos:station:wmo:42045:1,2017-04-13T12:00:00Z,26.2168,-96.4998,1018.03,11111222 
TABS,ioos:station:wmo:42045:1,2017-04-13T12:30:00Z,26.2168,-96.4998,1018.11,11111222 
TABS,ioos:station:wmo:42045:1,2017-04-13T13:00:00Z,26.2168,-96.4998,1018.37,11111222 
TABS,ioos:station:wmo:42045:1,2017-04-13T13:30:00Z,26.2168,-96.4998,1018.55,11111222 
TABS,ioos:station:wmo:42045:1,2017-04-13T14:00:00Z,26.2168,-96.4998,1019.05,11111222 
TABS,ioos:station:wmo:42045:1,2017-04-13T14:30:00Z,26.2168,-96.4998,1019.17,11111222 
TABS,ioos:station:wmo:42045:1,2017-04-13T15:00:00Z,26.2168,-96.4998,1019.66,11111222 
TABS,ioos:station:wmo:42045:1,2017-04-13T15:30:00Z,26.2168,-96.4998,1019.97,11111222 
TABS,ioos:station:wmo:42045:1,2017-04-13T16:00:00Z,26.2168,-96.4998,1020.24,11111222 
TABS,ioos:station:wmo:42045:1,2017-04-13T16:30:00Z,26.2168,-96.4998,1020.22,11111222 
TABS,ioos:station:wmo:42045:1,2017-04-13T17:00:00Z,26.2168,-96.4998,1020.13,11111222 
TABS,ioos:station:wmo:42045:1,2017-04-13T17:30:00Z,26.2168,-96.4998,1020.1,11111222 
TABS,ioos:station:wmo:42045:1,2017-04-13T18:00:00Z,26.2168,-96.4998,1020.09,11111222 
TABS,ioos:station:wmo:42045:1,2017-04-13T18:30:00Z,26.2168,-96.4998,1019.97,11111222 